Powrót do katalogu

STARLINK-34515

AktywnyŁącznośćVLEO
NORAD 64712·PAYLOAD·🇺🇸 United States

Wystrzelony Jun 28, 2025 z Vandenberg Space Force Base

Loading…

Następne Przeloty (najbliższe 24 godziny)

TLE

ŚwieżeSource: CelesTrak SupGP

Epoka: Sep 14, 2026, 22:50 UTC

1 64712C 25142S   26257.95187500 -.00028131  00000+0 -97821-3 0  2574
2 64712  70.0011 195.7021 0003269 266.4134 281.0097 15.29605046    18

Śledź STARLINK-34515 w czasie rzeczywistym z AllMySat

Download on the App Store